EW7845 Weather Reports


time (UTC)temp
C
wind
direction
speed
KPH
gust
KPH
rain 1hr
cm
rain 24hr
cm
rain mn
cm
humidity
%
barometer
mb
20260506090026 5 0.0 0.0 0.00 0.03 0.00 94 1018.6
20260506083021 5 0.0 0.0 0.00 0.03 0.00 94 1018.8
20260506073021 5 0.0 0.0 0.00 0.03 0.00 94 1019.2
20260506043022 6 0.0 0.0 0.00 0.03 0.03 94 1017.2
20260506040021 6 0.0 0.0 0.00 0.03 0.03 94 1016.4
20260506033020 6 0.0 0.0 0.00 0.03 0.03 94 1015.9
20260506030043 6 0.0 0.0 0.00 0.03 0.03 94 1015.6
20260506023022 6 0.0 0.0 0.00 0.03 0.03 94 1015.4
20260506020022 6 0.0 0.0 0.00 0.03 0.03 94 1015.2
20260506013022 6 0.0 0.0 0.00 0.03 0.03 93 1015.1
20260506010022 6 0.0 0.0 0.00 0.03 0.03 93 1015.3
20260506003041 6 0.0 1.6 0.00 0.03 0.03 93 1015.3
20260506000022 6 0.0 3.2 0.00 0.03 0.03 93 1015.2
20260505223022 6 0.0 0.0 0.00 0.05 0.03 93 1015.2
20260505220022 6 0.0 3.2 0.00 0.05 0.03 92 1015.4
20260505213021 6 0.0 4.8 0.00 0.05 0.03 92 1015.3
20260505210021 6 0.0 3.2 0.00 0.05 0.03 92 1015.4
20260505203022 6 0.0 1.6 0.00 0.05 0.03 92 1015.1
20260505200022 6 0.0 3.2 0.00 0.05 0.03 91 1015.3
20260505193022 7 0.0 4.8 0.00 0.05 0.03 91 1015.2
20260505190022 6 0.0 6.4 0.00 0.05 0.03 91 1014.9
20260505183021 6 0.0 1.6 0.00 0.05 0.03 93 1014.9
20260505180021 6 0.0 1.6 0.00 0.05 0.03 93 1014.5
20260505173021 5 0.0 3.2 0.00 0.05 0.03 92 1014.1
20260505170415 5 23 1.6 3.2 0.00 0.05 0.03 92 1013.7
20260505163021 5 338 1.6 4.8 0.00 0.05 0.03 93 1013.4
20260505153021 4 0.0 3.2 0.00 0.05 0.03 94 1013.1
20260505123021 4 0.0 3.2 0.00 0.03 0.00 94 1012.3
20260505120617 4 0.0 3.2 0.00 0.03 0.00 94 1012.2
20260505113020 4 0.0 0.0 0.00 0.03 0.00 94 1012.2
20260505100021 4 0.0 0.0 0.00 0.03 0.00 94 1012.3
20260505093026 4 0.0 0.0 0.00 0.03 0.00 94 1012.4